Location: Enikep?du
(16.5133°N, 80.7066°E)
Time: 04:56:10
(UTC+00:00)

Cosmos 2341 Rocket - Pass Details

Date: 20 January 2020
Orbit: 967 x 1005 km, 82.9° (Epoch: 17 February)

Event Time Altitude Azimuth Distance (km) Brightness Sun altitude
Rises 00:24:45 0° 358° (N) 3,667 6.8 -10.9°
Reaches altitude 10° 00:27:17 10° 360° (N) 2,714 6.2 -10.3°
Maximum altitude 00:33:29 78° 86° (E) 991 4.2 -8.9°
Drops below altitude 10° 00:39:39 10° 172° (S) 2,699 6.7 -7.5°
Sets 00:42:09 0° 174° (S) 3,645 7.4 -7.0°
